Wetbulb
49.49 49.73 50.25 49.94 48.80 47.75 46.79 46.30 45.43 45.27 45.02 45.47 45.96 46.20 46.18 46.73 47.10 47.32 47.65 50.94 47.34 41.55 44.53 46.02 45.80 40.64 40.50 40.15 35.38 40.67 40.91 42.42 41.97 38.73 37.80 37.82 37.64 38.81 35.64 38.56 35.82 33.28 32.19 33.64 33.79 30.04 28.28 41.86 40.09 35.53 43.80 46.03 45.55 48.86
49.55 50.01 49.83 48.27 47.27 46.48 45.80 45.17 44.97 44.90 44.78 44.94 45.40 45.68 45.90 46.08 46.47 46.74 42.85 50.17 52.59 45.23 43.29 48.38 47.81 48.24 46.57 45.53 41.74 40.44 40.85 39.52 42.79 39.43 38.68 40.60 38.04 39.58 37.91 32.66 38.65 32.73 34.73 32.55 32.55 33.46 41.81 42.12 39.46 40.61 40.09 39.83 44.72 48.00
49.76 49.96 48.09 46.97 46.18 45.62 45.07 44.79 44.47 44.54 44.70 44.63 45.46 46.47 47.12 47.48 47.03 46.08 45.26 47.54 47.15 42.33 41.65 45.90 47.58 50.34 52.76 50.81 50.63 39.28 42.94 44.19 43.24 43.72 39.44 37.51 36.34 40.71 35.01 37.67 37.70 38.93 41.74 33.10 34.37 39.43 38.44 41.49 42.82 44.05 46.33 47.24 47.33 49.59
49.82 48.13 46.81 45.78 45.22 44.74 44.47 44.28 44.11 44.19 44.26 44.87 45.59 46.39 47.24 47.51 46.95 46.58 45.74 48.23 47.60 42.78 36.73 44.80 51.75 48.22 51.80 50.86 49.42 49.20 47.93 48.91 47.37 44.57 39.31 37.64 36.10 43.47 40.33 40.82 39.21 42.73 42.22 39.18 38.44 39.28 41.77 41.84 41.39 42.18 45.19 46.60 45.68 47.59
47.93 46.38 45.52 44.52 44.23 44.05 43.93 43.69 43.59 43.91 44.29 44.74 45.76 46.63 46.54 46.37 46.25 46.66 47.20 46.35 46.67 41.17 38.66 40.98 47.02 51.85 52.71 52.44 50.00 49.01 47.79 45.60 43.30 38.92 38.77 37.41 40.66 41.38 45.02 44.41 41.31 44.23 40.99 37.50 35.28 41.26 40.80 40.08 42.13 43.03 43.16 45.15 46.55 47.33
46.27 45.11 44.10 43.74 43.56 43.49 43.37 43.47 43.76 44.04 44.29 44.91 45.88 46.33 46.38 45.99 45.87 45.87 41.45 49.20 48.07 46.20 38.30 35.21 49.12 48.97 51.44 51.94 48.82 47.37 46.74 44.79 42.17 39.75 39.87 41.74 47.85 43.89 39.32 38.74 44.59 45.88 46.64 44.52 41.22 43.86 43.35 42.27 42.89 43.96 43.54 45.82 46.26 47.21
44.93 43.88 43.34 43.09 43.09 43.22 43.20 43.61 43.76 44.11 44.74 45.30 45.85 45.89 45.59 45.60 47.08 43.99 43.75 45.60 48.78 46.99 38.52 35.98 40.16 47.75 51.23 50.53 48.86 47.62 47.53 44.16 42.17 40.29 40.18 43.69 45.01 46.15 42.83 39.27 45.02 45.37 45.54 46.68 46.32 44.62 41.51 42.82 41.39 44.50 46.04 46.53 46.07 46.51
43.86 43.17 42.77 42.83 42.87 42.79 42.97 43.19 43.56 44.35 45.38 45.81 46.19 45.94 45.17 48.02 46.49 45.03 48.92 48.49 48.61 43.30 41.26 35.87 38.62 44.59 51.08 47.18 45.37 47.90 43.67 43.93 43.04 41.84 43.87 43.93 46.10 45.80 39.07 45.53 45.56 46.74 45.65 45.79 45.18 45.60 43.70 44.92 45.49 45.33 45.31 46.52 43.39 44.42
43.06 42.53 42.53 42.50 42.22 42.22 42.62 43.10 43.61 44.33 45.60 45.55 46.14 45.99 47.48 46.06 43.95 46.56 47.41 49.29 48.19 43.49 37.04 37.39 36.75 39.20 49.01 46.57 49.33 46.88 47.48 39.87 44.99 40.77 43.20 46.06 43.81 39.53 44.55 45.82 45.77 46.60 45.01 44.75 45.27 44.63 44.29 43.86 45.31 44.33 43.91 43.99 42.37 42.94
42.61 42.13 42.15 41.96 42.19 42.19 42.44 42.97 43.52 43.91 45.36 45.69 46.69 46.57 45.03 45.60 45.17 48.37 45.49 42.57 40.08 40.58 39.59 36.56 44.03 38.67 44.51 43.99 44.18 45.80 46.69 42.70 39.35 44.16 47.56 43.79 43.27 49.17 48.54 49.01 48.38 47.88 47.68 46.68 43.07 42.06 42.21 42.11 44.00 44.28 43.66 43.10 42.88 43.01
42.24 41.80 41.48 41.70 42.04 42.52 43.17 43.67 43.66 43.98 45.87 45.75 42.46 43.01 45.56 47.33 46.26 45.86 40.79 38.70 38.41 35.97 38.68 41.44 42.12 39.41 46.34 41.22 42.11 45.69 44.52 44.63 38.87 43.52 42.30 41.69 43.14 47.17 49.45 48.93 49.39 49.09 49.13 47.87 46.72 46.12 44.05 44.02 44.39 45.18 43.72 43.50 42.82 42.47
41.56 41.05 41.30 41.30 41.96 42.79 43.19 43.25 43.32 44.46 43.94 42.09 41.36 42.79 44.07 42.15 41.22 36.95 37.53 40.58 39.95 37.77 42.94 42.98 42.02 43.08 43.94 44.62 42.08 45.34 41.53 44.36 37.41 48.41 42.60 39.82 44.07 47.54 48.56 48.49 49.15 49.30 49.06 48.46 48.00 45.01 43.77 44.11 46.12 45.80 45.43 45.25 43.10 43.49
40.91 40.93 40.85 41.40 41.99 42.50 42.97 42.95 43.32 43.49 44.17 46.33 41.06 37.41 38.83 39.74 32.62 33.12 32.57 37.71 38.93 39.23 40.34 41.24 39.61 43.23 45.40 43.65 41.56 41.53 38.91 39.40 46.72 42.36 39.94 42.99 46.63 48.09 48.93 49.26 49.08 49.63 49.21 49.07 47.41 46.23 44.24 43.82 45.38 45.79 44.94 45.35 46.06 43.52
40.75 40.73 41.02 41.86 42.38 42.75 42.58 42.86 43.37 43.70 44.07 40.62 36.66 33.20 35.47 34.05 36.55 37.79 37.49 36.75 40.05 41.90 41.13 42.30 40.95 41.01 43.27 36.80 37.33 33.99 41.31 43.55 38.24 36.29 37.55 43.88 46.95 48.40 49.11 49.63 48.98 48.46 48.48 47.91 47.44 45.50 44.83 44.70 44.48 45.14 45.60 45.34 45.60 45.49
40.68 40.89 41.72 42.60 41.43 41.90 42.72 42.88 43.23 45.44 42.90 37.30 37.83 30.03 35.61 41.01 40.63 43.52 42.90 43.22 43.54 42.68 41.79 41.03 41.54 42.35 40.82 36.38 34.95 38.09 37.47 36.40 39.36 39.93 44.22 47.47 49.44 50.34 49.17 49.53 48.92 49.83 49.04 48.37 48.48 46.82 45.94 45.31 44.93 45.07 45.79 45.64 45.27 45.22
41.04 41.13 43.31 40.42 41.46 42.50 42.85 44.58 46.69 46.08 42.90 38.68 36.89 34.86 38.58 36.78 37.14 38.66 39.03 38.72 41.84 42.41 42.42 41.46 38.71 37.61 38.28 39.18 34.99 37.49 36.45 36.28 41.71 46.01 47.70 49.99 50.33 51.76 51.18 50.21 50.53 50.81 50.45 50.35 49.59 48.70 47.82 46.09 45.55 46.15 46.47 45.91 44.65 44.79
40.08 44.43 40.31 41.56 42.49 43.05 43.45 44.54 43.99 37.82 38.15 35.69 37.54 40.37 38.43 37.26 36.11 36.69 38.34 38.74 42.47 39.41 35.94 36.58 34.41 34.74 39.98 37.06 35.73 41.33 38.83 39.69 43.53 46.81 49.27 50.67 50.53 50.99 51.49 50.84 50.83 50.67 50.49 50.67 50.48 50.05 48.96 48.76 47.95 46.53 45.17 46.20 46.12 45.32
42.41 44.13 42.01 42.27 43.05 44.80 45.48 44.69 41.31 38.64 33.96 38.14 35.91 37.27 38.13 38.91 37.89 38.28 39.53 40.54 38.88 38.47 37.50 34.63 37.19 32.95 32.36 32.47 37.09 36.40 41.01 43.59 45.62 46.76 48.41 49.73 51.42 52.10 52.15 51.43 50.63 51.14 50.97 51.34 51.15 51.00 50.44 49.56 48.02 46.56 46.90 47.28 46.88 46.84
42.84 43.81 41.94 41.52 42.15 42.72 40.30 40.55 42.90 35.44 37.52 38.73 39.54 39.56 39.47 38.92 40.33 40.73 40.23 41.18 41.62 41.76 39.59 38.52 33.35 32.13 34.70 39.77 38.83 41.05 42.13 42.90 43.44 46.50 47.19 49.00 50.99 49.81 50.77 51.79 51.95 52.12 52.14 52.02 51.47 50.70 50.87 51.08 49.96 49.44 48.48 47.84 46.38 46.88
41.30 41.41 40.79 41.13 40.98 42.33 35.23 39.41 44.11 37.47 35.80 38.03 39.54 38.36 38.00 37.80 39.77 40.06 40.44 41.09 40.11 38.88 34.68 34.41 35.26 37.61 37.61 40.16 42.39 43.06 43.38 44.97 44.44 43.64 45.34 47.72 49.48 49.49 49.58 49.32 51.41 52.94 52.17 52.01 51.56 46.58 50.75 50.45 50.86 50.87 50.10 47.80 46.91 46.37
38.86 42.28 41.18 42.68 43.58 42.56 40.25 40.70 38.86 40.26 38.99 37.28 38.50 38.17 37.47 39.72 38.18 38.32 39.40 41.69 36.36 34.95 33.32 33.92 33.79 37.76 40.79 42.32 44.30 44.82 44.41 44.92 43.05 42.79 44.49 44.84 47.36 49.09 49.70 50.53 52.16 50.38 51.43 50.63 49.80 49.19 48.25 50.02 50.98 51.26 49.72 48.90 48.11 47.84
43.87 40.40 44.23 42.15 40.49 39.27 39.38 43.31 38.88 40.45 38.54 38.33 37.90 38.69 36.00 33.95 35.91 36.62 39.69 34.91 32.62 33.48 34.37 34.09 34.72 36.04 36.80 39.73 40.86 43.17 42.29 42.06 43.10 43.47 42.47 44.04 46.49 47.70 48.19 49.32 49.14 49.25 51.39 52.04 51.09 50.51 51.11 51.04 51.58 51.79 51.26 49.02 47.20 47.18
40.38 41.72 42.01 39.75 34.99 35.54 33.82 43.30 36.11 38.19 32.82 33.89 37.18 34.76 34.07 35.84 37.68 41.02 34.46 35.11 34.98 36.55 36.78 35.92 36.49 37.97 37.62 38.60 39.37 40.22 40.07 38.23 38.05 39.77 42.66 44.80 46.82 48.28 48.97 50.00 50.09 48.56 49.89 49.73 52.80 52.17 51.61 47.31 49.37 51.67 51.32 49.31 48.00 46.62
38.85 37.65 34.58 35.09 35.25 32.55 37.99 35.70 38.69 35.96 36.74 35.01 33.03 30.41 32.82 35.79 39.24 35.15 30.95 33.38 34.86 35.80 35.13 35.12 35.83 35.07 36.58 37.14 35.34 35.48 36.81 36.22 34.76 35.38 38.62 41.54 43.93 46.38 48.43 48.32 49.25 50.45 52.02 53.35 50.90 51.40 53.28 51.75 48.35 51.53 50.70 49.64 47.92 46.07
31.77 30.05 33.06 28.72 36.10 31.96 31.21 31.38 32.40 33.45 29.68 32.51 30.90 31.84 34.81 39.37 34.37 31.65 27.59 31.05 32.25 32.63 33.75 34.80 34.82 35.11 34.77 34.41 34.86 35.62 37.30 35.74 33.61 32.92 35.93 38.83 41.04 43.91 45.38 47.14 48.85 51.80 53.00 51.93 51.92 50.99 50.22 52.24 52.59 51.67 50.42 49.70 48.19 46.69
26.76 30.52 30.41 32.67 33.58 32.42 33.01 29.06 29.33 30.14 32.52 30.30 32.53 36.55 36.88 34.11 28.32 26.65 30.34 32.12 31.87 32.82 33.50 33.82 33.33 33.26 33.79 35.37 34.73 35.12 35.36 36.95 36.16 34.09 35.01 37.44 39.02 38.29 38.11 39.72 42.50 47.49 50.39 47.96 48.22 51.99 50.22 52.01 51.98 50.43 50.21 48.38 39.88 47.15
26.74 28.47 35.05 40.37 40.17 37.74 35.28 35.71 37.29 33.87 29.31 29.20 32.92 32.25 32.26 26.23 26.18 30.24 34.02 35.28 32.78 33.99 35.58 36.12 35.73 34.43 34.42 35.60 36.84 38.01 38.86 39.03 37.23 36.27 37.71 37.90 36.52 38.23 34.39 34.07 35.28 38.78 42.25 45.23 49.44 50.42 51.63 51.95 50.56 49.64 50.17 50.41 49.29 48.70
32.62 35.30 32.01 34.48 35.27 36.16 30.34 32.48 31.35 31.06 33.25 37.00 35.95 29.43 27.63 28.03 29.39 33.26 33.71 35.16 35.32 36.50 36.78 37.39 37.67 37.63 36.94 37.07 37.62 37.14 36.81 37.48 38.57 38.89 38.41 37.45 36.64 36.90 34.75 35.02 36.11 34.80 39.99 43.87 43.59 46.82 48.98 51.29 50.26 50.35 50.43 50.39 49.30 49.10
33.31 37.23 36.95 32.25 32.18 31.22 32.00 32.86 33.90 37.09 40.11 38.69 33.79 32.03 31.02 33.27 33.78 34.52 36.00 36.79 37.35 35.84 34.69 35.29 36.48 38.02 37.99 38.33 38.13 38.03 37.07 35.87 32.26 30.77 31.38 32.81 33.79 34.37 35.16 34.84 35.56 37.05 38.53 40.52 39.00 40.09 46.38 47.31 50.29 50.15 51.13 50.11 50.07 49.95
33.95 38.05 34.24 33.14 30.32 31.05 36.39 39.27 38.20 40.55 42.26 40.93 39.46 36.89 33.66 33.87 37.20 39.88 38.23 36.91 34.83 33.51 34.29 35.42 36.40 36.23 35.01 34.58 34.12 34.65 36.50 37.01 36.45 32.08 28.53 29.59 31.67 34.07 34.94 35.68 36.08 36.18 37.13 39.24 40.90 45.65 37.62 46.08 43.87 46.77 44.35 44.54 43.86 41.77
38.52 37.91 35.16 35.32 33.90 37.82 39.87 39.89 40.01 40.30 40.98 37.77 38.09 35.95 32.55 32.55 34.12 35.30 35.37 35.63 35.31 34.24 33.25 33.31 34.65 35.50 34.51 33.86 33.40 32.62 31.84 35.44 34.73 33.73 33.15 34.72 35.18 35.22 35.66 36.18 37.02 36.84 36.59 36.85 37.55 39.93 43.32 45.17 46.09 44.35 43.49 41.65 40.94 40.94
37.59 35.82 34.45 30.96 34.05 39.71 40.55 38.54 37.67 36.31 34.57 33.74 33.45 34.20 33.25 31.94 29.85 30.48 32.93 33.90 32.53 30.46 29.37 30.93 31.27 32.38 35.19 35.41 35.58 35.71 31.18 35.64 34.54 32.94 31.52 33.16 33.95 34.91 36.17 36.80 37.18 37.20 36.19 35.04 33.13 34.66 35.95 35.43 36.91 39.00 40.44 40.08 39.54 39.90
35.80 36.54 35.60 35.37 34.51 33.45 37.22 36.70 34.48 32.84 33.20 32.71 32.92 33.60 33.92 32.44 27.81 30.82 33.68 34.11 32.50 31.04 31.21 32.69 34.29 34.81 35.42 34.80 34.25 34.78 33.64 35.75 33.33 29.57 29.81 29.71 29.64 30.54 34.00 34.60 36.87 35.14 34.35 34.29 33.79 32.86 30.98 30.38 30.63 31.32 31.68 32.60 33.75 35.01
MSLP
1027.61 1027.31 1027.15 1026.85 1026.63 1026.36 1026.09 1025.79 1025.46 1025.12 1024.82 1024.51 1024.08 1023.75 1023.40 1022.99 1022.66 1022.35 1020.67 1020.06 1020.44 1019.13 1016.77 1016.07 1015.30 1015.60 1015.54 1015.48 1015.24 1014.19 1013.11 1011.86 1010.59 1009.81 1009.48 1008.78 1007.83 1007.54 1007.94 1007.61 1008.40 1008.87 1008.62 1007.83 1007.24 1006.12 1005.29 1005.24 1005.22 1004.06 1000.69 1000.36 1000.72 999.21
1027.28 1026.89 1026.72 1026.60 1026.35 1026.16 1025.92 1025.59 1025.16 1024.84 1024.58 1024.24 1023.85 1023.41 1023.00 1022.72 1022.46 1022.14 1020.89 1019.38 1019.73 1019.43 1016.95 1015.81 1015.30 1015.06 1014.76 1014.60 1014.93 1014.98 1014.11 1013.82 1012.61 1012.43 1012.04 1011.04 1009.56 1008.42 1007.92 1007.72 1008.31 1008.52 1008.72 1008.48 1008.22 1006.78 1005.70 1005.75 1005.54 1004.35 1003.25 1002.35 1001.41 999.93
1026.81 1026.52 1026.41 1026.30 1026.06 1025.92 1025.68 1025.27 1024.86 1024.48 1024.16 1023.83 1023.44 1023.05 1022.65 1022.27 1022.04 1021.92 1020.59 1019.61 1019.35 1018.78 1016.50 1013.64 1011.99 1012.12 1012.64 1013.21 1013.70 1014.57 1013.81 1013.66 1013.46 1013.93 1013.61 1012.83 1011.09 1009.06 1008.21 1007.16 1007.09 1007.10 1007.17 1007.88 1007.40 1006.10 1005.92 1005.38 1005.00 1003.47 1001.71 1000.55 1000.99 1000.16
1026.39 1026.27 1026.11 1025.94 1025.79 1025.61 1025.36 1024.94 1024.45 1024.05 1023.75 1023.33 1022.96 1022.52 1022.08 1021.76 1021.50 1021.34 1020.28 1018.94 1019.21 1019.12 1017.18 1012.59 1011.71 1011.60 1011.76 1012.17 1012.75 1013.36 1012.95 1012.86 1013.56 1014.03 1013.74 1012.71 1011.34 1009.51 1007.46 1006.43 1006.18 1005.83 1006.09 1006.27 1005.81 1006.15 1005.22 1005.10 1004.90 1004.09 1002.58 1001.88 1001.67 1001.07
1025.95 1025.98 1025.78 1025.62 1025.48 1025.25 1024.98 1024.59 1024.05 1023.57 1023.17 1022.80 1022.29 1021.82 1021.50 1021.30 1021.01 1020.47 1019.30 1018.92 1019.18 1019.29 1016.83 1014.05 1012.24 1010.19 1010.23 1010.56 1011.33 1012.17 1012.81 1013.18 1013.53 1013.89 1013.25 1012.03 1010.71 1009.20 1006.52 1005.31 1005.20 1004.52 1005.09 1005.33 1006.13 1006.24 1005.78 1005.71 1005.23 1004.48 1003.44 1002.59 1001.96 1001.17
1025.58 1025.62 1025.47 1025.34 1025.14 1024.89 1024.57 1024.11 1023.55 1022.99 1022.51 1022.08 1021.59 1021.16 1020.79 1020.54 1020.27 1019.23 1018.03 1017.61 1018.09 1018.99 1018.46 1015.59 1011.10 1010.08 1009.66 1010.15 1010.86 1011.43 1012.00 1012.85 1013.65 1013.54 1012.40 1011.03 1009.18 1008.52 1006.94 1005.08 1003.85 1003.55 1004.27 1004.89 1006.03 1006.07 1005.89 1005.87 1005.42 1004.56 1003.77 1003.12 1002.49 1001.65
1025.22 1025.29 1025.16 1025.02 1024.82 1024.49 1024.15 1023.66 1023.06 1022.40 1021.81 1021.30 1020.76 1020.32 1019.81 1019.54 1019.15 1018.12 1017.75 1018.44 1018.17 1018.89 1018.43 1015.82 1012.31 1009.55 1009.28 1009.43 1010.10 1010.97 1011.76 1012.33 1012.98 1012.80 1011.45 1009.66 1007.97 1007.63 1006.38 1004.56 1003.12 1003.54 1004.50 1004.32 1005.10 1005.69 1005.52 1005.17 1004.31 1004.21 1003.89 1003.35 1003.30 1002.75
1024.88 1024.95 1024.84 1024.69 1024.49 1024.14 1023.74 1023.26 1022.55 1021.74 1021.05 1020.37 1019.80 1019.25 1018.76 1018.21 1018.57 1017.93 1017.24 1017.96 1018.39 1018.61 1018.04 1015.83 1012.31 1009.50 1008.87 1008.79 1009.78 1010.42 1011.04 1011.65 1011.72 1011.13 1009.90 1008.32 1007.02 1006.24 1005.26 1003.60 1003.17 1003.32 1003.86 1004.70 1004.43 1005.61 1005.51 1004.56 1003.61 1003.76 1003.84 1003.66 1004.03 1003.60
1024.58 1024.56 1024.51 1024.38 1024.14 1023.74 1023.32 1022.82 1022.07 1021.19 1020.31 1019.41 1018.79 1018.39 1018.22 1018.09 1017.52 1017.32 1017.55 1017.77 1018.03 1018.41 1017.17 1015.21 1012.54 1009.36 1008.86 1008.10 1008.17 1009.31 1009.74 1010.05 1010.02 1009.49 1007.93 1006.56 1005.08 1004.90 1003.61 1002.48 1002.83 1003.34 1003.75 1004.21 1004.62 1005.24 1005.02 1004.56 1003.25 1004.14 1004.36 1004.43 1004.40 1004.39
1024.20 1024.19 1024.17 1024.05 1023.74 1023.35 1022.87 1022.37 1021.63 1020.80 1019.65 1018.33 1017.76 1016.75 1016.23 1016.77 1017.09 1016.92 1017.23 1017.35 1017.55 1017.36 1016.81 1014.55 1012.12 1010.41 1009.31 1008.92 1008.13 1008.30 1008.41 1008.15 1007.59 1006.43 1006.14 1005.22 1004.17 1003.27 1002.69 1002.61 1003.03 1003.54 1003.87 1004.54 1004.68 1004.92 1005.27 1004.92 1004.06 1004.29 1004.98 1005.14 1005.49 1005.43
1023.77 1023.80 1023.82 1023.65 1023.35 1022.95 1022.47 1022.03 1021.36 1020.56 1018.49 1017.60 1017.13 1016.31 1016.86 1016.62 1015.69 1014.79 1014.95 1015.63 1015.86 1015.63 1014.76 1012.83 1011.44 1010.70 1009.89 1009.62 1008.82 1007.83 1006.76 1006.30 1005.20 1004.66 1004.06 1003.80 1003.05 1002.86 1002.52 1002.55 1003.15 1003.85 1004.09 1004.62 1005.19 1005.75 1006.37 1005.94 1004.74 1004.56 1005.29 1006.03 1006.35 1006.52
1023.29 1023.39 1023.42 1023.24 1022.92 1022.59 1022.37 1021.92 1021.36 1020.31 1019.66 1020.12 1020.30 1019.32 1017.96 1016.27 1014.48 1014.15 1013.81 1013.23 1013.22 1012.13 1011.99 1011.19 1011.47 1011.41 1010.79 1010.80 1009.71 1007.92 1007.04 1005.60 1004.13 1003.84 1003.21 1002.84 1002.53 1002.50 1002.39 1002.70 1003.35 1003.97 1004.32 1004.89 1005.39 1005.92 1006.55 1006.33 1005.59 1005.72 1005.95 1006.03 1006.96 1007.16
1022.79 1022.94 1022.96 1022.79 1022.54 1022.35 1022.14 1021.75 1021.32 1020.90 1020.08 1018.40 1019.26 1018.56 1017.11 1015.52 1014.68 1013.26 1012.19 1011.49 1012.05 1012.86 1012.81 1012.29 1011.90 1011.31 1010.81 1011.01 1010.18 1009.21 1007.38 1005.65 1004.63 1003.57 1002.72 1002.46 1002.45 1002.37 1002.61 1002.85 1003.49 1003.96 1004.46 1004.99 1005.70 1006.02 1006.51 1006.61 1006.51 1006.30 1006.92 1007.09 1007.07 1007.51
1022.42 1022.51 1022.46 1022.29 1022.08 1021.97 1021.77 1021.39 1021.01 1020.30 1019.19 1017.24 1016.73 1016.61 1015.27 1014.18 1013.52 1012.78 1013.21 1013.34 1013.59 1012.91 1012.26 1011.29 1011.04 1010.91 1010.94 1011.28 1010.79 1009.73 1007.61 1006.00 1004.82 1003.71 1003.05 1002.64 1002.98 1002.72 1002.98 1003.24 1003.75 1004.18 1004.78 1005.11 1005.60 1006.08 1006.10 1006.70 1006.91 1006.97 1007.32 1007.65 1007.59 1007.38
1022.10 1022.06 1021.92 1021.60 1021.71 1021.62 1021.24 1020.84 1020.45 1019.73 1018.21 1016.91 1016.13 1015.47 1013.73 1012.73 1012.54 1012.22 1012.58 1012.60 1012.13 1012.24 1011.70 1010.69 1009.77 1009.65 1010.29 1010.90 1010.62 1009.24 1007.50 1006.09 1005.07 1004.40 1003.96 1003.46 1003.55 1003.36 1003.45 1003.68 1004.16 1004.24 1004.85 1005.20 1005.71 1006.13 1006.42 1007.03 1007.25 1007.54 1007.68 1007.99 1008.13 1008.25
1021.73 1021.59 1021.09 1021.28 1021.34 1021.03 1020.62 1019.73 1019.04 1018.81 1017.81 1016.89 1016.06 1014.94 1013.69 1013.53 1012.81 1012.41 1011.96 1012.29 1012.34 1011.91 1011.13 1010.84 1009.70 1009.29 1009.17 1009.28 1009.45 1008.06 1007.14 1006.68 1006.16 1005.46 1005.03 1004.10 1004.24 1003.67 1003.86 1003.99 1004.55 1004.55 1004.63 1005.16 1005.70 1006.38 1006.74 1007.22 1007.61 1007.70 1007.92 1008.11 1008.40 1008.60
1021.49 1020.05 1020.92 1021.00 1020.76 1020.25 1020.13 1019.56 1018.69 1018.26 1017.42 1016.52 1015.15 1014.55 1014.05 1013.80 1013.56 1013.31 1012.98 1012.92 1012.27 1011.97 1011.61 1011.75 1010.67 1009.82 1009.88 1008.95 1008.69 1007.85 1008.34 1008.39 1007.47 1006.43 1005.81 1005.41 1005.11 1004.53 1004.23 1004.64 1004.51 1004.94 1005.15 1005.29 1005.84 1006.34 1006.87 1007.25 1007.55 1007.90 1008.28 1008.61 1009.02 1009.51
1020.12 1019.79 1020.60 1020.68 1020.35 1019.22 1018.74 1018.76 1017.97 1017.48 1016.56 1015.55 1014.74 1014.30 1014.16 1014.01 1013.83 1013.47 1013.23 1013.24 1013.07 1012.47 1012.52 1012.53 1012.45 1011.60 1010.99 1009.78 1009.44 1010.20 1009.50 1008.64 1007.55 1007.18 1006.65 1006.20 1005.95 1005.47 1004.60 1004.52 1004.98 1005.16 1005.56 1005.44 1005.85 1006.51 1006.94 1007.12 1007.30 1007.94 1008.43 1008.66 1008.95 1009.28
1020.01 1020.11 1020.55 1020.56 1020.24 1019.53 1018.37 1017.92 1017.69 1016.71 1015.91 1015.29 1014.64 1014.48 1014.42 1014.47 1014.03 1013.81 1013.39 1013.12 1013.07 1012.73 1012.72 1012.28 1012.66 1012.02 1011.82 1011.06 1010.59 1010.22 1009.76 1009.23 1008.59 1007.88 1007.50 1007.22 1006.74 1006.84 1006.28 1005.20 1005.12 1005.12 1005.32 1005.62 1005.89 1006.23 1006.56 1006.77 1007.21 1007.56 1007.73 1008.05 1008.62 1009.00
1020.49 1020.50 1020.47 1020.38 1020.26 1018.65 1018.06 1017.38 1017.63 1016.91 1015.86 1015.34 1014.99 1014.67 1014.44 1014.23 1014.02 1013.74 1013.42 1013.10 1013.20 1013.08 1013.33 1013.05 1013.23 1013.48 1013.47 1012.55 1011.28 1010.69 1010.42 1009.91 1009.55 1008.65 1007.80 1007.34 1007.01 1007.16 1007.27 1006.51 1005.64 1005.11 1005.16 1005.48 1005.77 1006.24 1006.66 1006.76 1007.19 1007.44 1007.58 1008.25 1008.64 1009.18
1020.24 1019.76 1020.09 1019.63 1018.90 1018.58 1017.80 1016.87 1016.49 1016.41 1016.10 1015.64 1015.24 1014.92 1014.52 1014.18 1014.39 1014.99 1014.54 1014.98 1015.00 1015.62 1016.07 1016.78 1016.36 1015.75 1015.14 1013.64 1012.15 1011.84 1011.37 1011.38 1011.26 1010.95 1009.92 1008.65 1008.08 1007.33 1007.18 1006.91 1005.84 1005.87 1005.15 1005.53 1005.73 1005.95 1006.38 1006.52 1006.86 1007.62 1008.15 1008.21 1008.85 1009.59
1018.96 1019.68 1018.96 1019.28 1018.48 1018.31 1017.77 1017.02 1016.76 1016.42 1016.22 1015.61 1015.23 1014.61 1014.68 1015.13 1014.99 1015.66 1016.23 1016.36 1017.33 1018.25 1018.62 1018.37 1017.80 1016.99 1015.99 1014.91 1014.30 1013.45 1013.08 1012.79 1012.29 1011.39 1010.38 1009.51 1008.25 1007.60 1007.46 1007.26 1007.04 1006.64 1006.36 1005.52 1005.55 1005.92 1005.84 1006.31 1006.69 1007.48 1007.85 1008.82 1009.35 1010.14
1019.63 1019.52 1018.84 1018.69 1018.31 1018.10 1017.52 1016.90 1016.28 1015.90 1015.97 1015.75 1015.35 1014.92 1015.38 1015.50 1015.77 1015.85 1016.83 1018.15 1018.99 1019.59 1019.37 1018.93 1018.18 1017.37 1016.47 1015.70 1015.13 1014.64 1014.40 1014.27 1013.66 1012.84 1011.74 1010.45 1009.04 1008.08 1007.55 1007.63 1007.24 1007.08 1006.44 1005.99 1005.52 1005.11 1005.64 1006.01 1006.70 1006.96 1007.89 1008.81 1009.34 1010.19
1019.81 1019.13 1018.43 1017.92 1017.71 1017.29 1017.01 1016.22 1016.49 1016.36 1016.10 1015.89 1015.67 1015.52 1015.80 1016.08 1016.46 1016.72 1017.68 1018.89 1019.86 1019.96 1019.71 1019.22 1018.55 1017.83 1017.06 1016.31 1015.96 1015.55 1015.32 1015.28 1014.76 1014.05 1013.04 1011.69 1010.05 1008.76 1008.10 1007.84 1007.31 1006.74 1005.50 1004.74 1005.75 1006.00 1005.03 1005.74 1006.38 1007.04 1007.75 1008.32 1009.17 1009.80
1019.40 1019.19 1018.56 1017.87 1017.09 1016.89 1016.36 1016.08 1016.04 1016.25 1015.84 1015.77 1015.69 1015.76 1015.99 1016.39 1016.75 1017.51 1018.54 1019.61 1020.06 1020.15 1019.95 1019.53 1019.09 1018.61 1017.96 1017.47 1016.99 1016.51 1016.20 1015.82 1015.17 1014.32 1013.48 1012.53 1011.59 1010.56 1009.61 1008.87 1007.96 1006.86 1005.77 1005.13 1004.83 1005.20 1005.19 1005.22 1005.78 1006.38 1007.32 1008.03 1008.86 1009.59
1018.55 1018.04 1017.64 1016.34 1016.08 1015.95 1015.66 1015.67 1016.23 1016.08 1015.65 1015.74 1015.80 1016.23 1016.68 1016.99 1017.60 1018.50 1019.46 1020.22 1020.58 1020.70 1020.37 1019.89 1019.43 1018.86 1018.29 1018.05 1017.58 1016.93 1016.57 1016.06 1015.41 1014.62 1013.85 1013.32 1012.55 1012.23 1011.61 1010.72 1009.56 1007.98 1007.62 1007.51 1006.76 1005.16 1004.40 1004.85 1005.33 1006.02 1006.71 1007.56 1008.58 1008.91
1017.65 1016.81 1016.19 1015.43 1015.17 1015.42 1015.70 1015.55 1015.43 1015.68 1015.50 1015.54 1015.65 1016.32 1016.89 1017.72 1018.58 1019.65 1020.10 1020.53 1020.91 1020.91 1020.49 1019.83 1019.40 1019.05 1018.60 1018.14 1017.81 1017.43 1016.92 1016.26 1015.66 1015.31 1014.70 1014.23 1013.86 1013.36 1013.51 1012.75 1011.77 1010.89 1009.96 1008.58 1007.20 1006.33 1005.41 1004.88 1005.37 1005.99 1006.14 1006.69 1007.72 1008.25
1016.52 1015.32 1015.00 1015.44 1015.44 1015.89 1015.78 1015.21 1014.96 1014.68 1014.41 1014.77 1015.40 1016.16 1017.37 1018.26 1019.24 1020.14 1020.59 1020.96 1020.80 1020.33 1019.90 1019.44 1019.00 1018.48 1018.10 1017.92 1017.71 1017.40 1017.15 1016.67 1015.80 1015.19 1014.62 1014.15 1014.12 1013.88 1013.89 1013.28 1012.56 1011.64 1010.43 1008.97 1008.37 1007.31 1006.52 1005.82 1005.63 1005.92 1006.37 1006.58 1007.30 1008.00
1015.45 1014.79 1014.71 1015.19 1015.64 1016.00 1015.64 1014.88 1014.17 1013.95 1014.18 1014.36 1014.96 1016.21 1017.92 1019.35 1020.38 1020.60 1020.60 1020.38 1020.34 1020.21 1019.93 1019.43 1018.91 1018.47 1018.06 1017.73 1017.60 1017.31 1017.51 1017.28 1016.72 1015.90 1015.30 1014.70 1013.88 1013.68 1013.85 1013.37 1012.51 1011.67 1010.75 1009.58 1008.37 1007.57 1006.58 1006.47 1005.83 1005.44 1005.63 1006.26 1007.31 1007.92
1014.37 1014.40 1014.60 1014.71 1014.96 1014.52 1013.93 1013.98 1013.97 1014.12 1014.43 1014.58 1015.60 1017.26 1018.95 1019.87 1020.14 1020.10 1020.11 1020.08 1020.23 1020.37 1020.27 1019.82 1019.21 1018.92 1018.54 1018.29 1018.08 1018.02 1017.81 1017.93 1018.15 1018.15 1017.63 1016.76 1016.23 1015.54 1014.63 1013.70 1012.69 1011.97 1011.11 1009.98 1008.79 1007.15 1006.44 1005.95 1005.88 1005.92 1006.17 1006.82 1007.40 1008.14
1013.38 1013.49 1013.83 1013.93 1013.69 1012.96 1012.97 1014.19 1014.88 1015.39 1015.43 1015.96 1016.68 1017.22 1018.51 1019.86 1020.55 1021.02 1021.18 1020.89 1020.76 1021.02 1021.10 1020.56 1019.85 1019.66 1019.40 1019.07 1018.85 1018.60 1018.55 1018.26 1018.55 1018.73 1018.65 1017.75 1016.92 1016.08 1015.08 1014.20 1013.35 1012.47 1011.56 1010.56 1009.50 1008.38 1007.61 1007.02 1006.65 1006.60 1006.73 1007.32 1008.06 1008.45
1012.82 1012.93 1013.31 1013.64 1013.44 1012.94 1013.10 1013.44 1014.46 1015.32 1016.26 1017.07 1017.76 1018.53 1019.23 1019.76 1020.41 1021.71 1022.31 1021.83 1021.58 1021.81 1022.10 1021.71 1021.12 1020.51 1020.28 1020.08 1019.87 1019.48 1019.57 1018.99 1019.08 1019.34 1019.12 1018.45 1017.74 1016.99 1015.89 1015.06 1014.18 1013.29 1012.41 1011.50 1010.80 1010.01 1009.34 1008.97 1008.35 1007.94 1007.96 1008.23 1008.69 1009.37
1012.79 1012.71 1013.23 1013.53 1013.54 1013.26 1013.25 1013.64 1014.50 1015.78 1016.61 1017.16 1017.73 1018.33 1018.99 1019.62 1020.76 1021.99 1022.58 1022.77 1022.77 1022.57 1022.27 1021.80 1021.40 1021.08 1020.87 1020.76 1020.60 1020.00 1019.59 1019.45 1019.63 1019.73 1019.57 1019.09 1018.63 1018.08 1016.97 1016.17 1015.25 1014.62 1014.01 1013.36 1012.76 1012.29 1011.90 1011.05 1010.86 1010.86 1010.66 1010.70 1010.88 1011.30
Wind_Speed
12 11 12 8 9 11 13 13 13 14 14 15 15 14 13 13 13 8 8 6 6 7 16 22 16 12 10 7 5 10 10 1 8 4 4 6 6 5 3 12 3 3 5 1 4 7 5 8 14 11 13 14 13 16
12 11 7 7 10 11 12 13 13 14 15 15 16 15 14 13 12 11 8 7 3 6 13 22 25 24 25 22 10 3 8 9 5 4 4 6 9 5 9 5 4 2 3 3 3 5 10 13 14 22 23 23 22 18
12 9 6 8 10 12 13 13 14 15 16 16 16 16 16 14 12 9 9 9 4 6 12 16 9 12 14 15 15 7 7 7 3 2 2 3 6 4 4 6 4 5 3 3 4 4 12 11 12 16 11 12 16 17
10 6 7 8 10 12 14 14 14 16 17 17 16 18 17 15 13 11 10 8 2 3 6 3 4 9 11 10 11 18 15 3 2 1 2 4 4 7 8 10 8 6 5 9 11 5 14 5 14 16 16 8 5 10
7 7 7 8 9 12 14 15 16 17 18 19 19 19 18 18 17 13 10 9 7 7 6 10 23 14 4 10 15 15 14 13 6 2 4 3 4 6 8 8 3 6 9 8 5 16 9 10 13 17 14 12 11 10
7 6 7 8 10 12 14 16 18 18 19 20 21 21 22 21 14 7 4 2 7 6 4 5 8 11 7 8 8 8 9 6 3 3 4 4 12 5 4 5 6 12 13 11 5 11 10 9 9 12 11 11 13 13
7 6 7 8 11 13 15 17 19 20 20 22 23 23 24 16 9 7 5 3 5 5 3 6 6 5 8 6 3 3 5 4 4 4 5 6 6 4 4 4 10 12 10 11 13 10 9 13 8 9 9 10 13 12
7 7 7 9 11 14 16 18 19 21 23 23 24 23 16 9 5 6 4 12 7 2 3 4 6 7 4 5 4 6 5 5 6 3 3 5 4 3 4 8 6 9 11 10 10 13 6 13 11 13 13 10 13 13
8 7 7 9 12 14 16 19 20 22 24 26 25 18 3 4 3 1 5 4 5 3 3 4 5 4 3 6 3 5 5 5 5 4 5 5 1 4 8 5 9 12 10 12 12 13 11 14 16 16 13 14 14 13
7 6 7 9 12 13 16 18 20 22 27 29 13 7 5 3 3 8 4 3 2 3 4 4 8 10 10 6 5 3 5 5 4 6 3 4 4 7 0 7 8 10 10 12 11 14 15 16 15 16 15 12 11 11
7 5 7 9 11 13 16 16 17 22 18 5 5 3 8 9 6 5 4 5 4 4 5 6 8 8 4 6 6 5 2 3 4 4 4 3 1 2 6 6 9 10 10 12 11 12 11 11 14 14 13 14 11 10
6 6 7 9 10 10 12 14 16 11 8 10 10 8 5 5 4 3 4 3 7 4 2 4 2 3 2 2 5 4 4 4 3 1 3 1 1 8 6 8 9 10 10 12 11 11 10 11 14 14 13 12 11 9
6 7 8 9 10 11 11 14 15 15 16 4 4 4 3 2 2 5 3 2 5 6 5 5 4 4 3 2 3 4 5 4 5 3 2 3 5 5 7 7 8 9 10 11 12 9 10 12 13 15 14 12 12 12
6 7 9 10 11 10 11 14 15 11 7 4 3 3 5 2 4 3 7 7 5 6 9 8 6 4 2 1 1 4 5 4 3 3 3 6 8 2 7 6 7 8 11 9 12 8 11 12 11 13 14 11 12 13
7 8 10 11 3 9 13 15 15 7 4 4 3 5 5 4 9 2 4 4 5 6 9 10 8 7 4 4 3 6 4 5 4 1 4 6 5 2 5 8 3 7 8 9 11 9 10 11 9 10 12 12 13 13
6 13 5 2 8 12 13 14 4 3 3 3 4 6 7 9 11 11 9 8 7 10 7 8 7 5 7 5 6 7 3 2 2 4 7 8 7 1 3 5 8 4 6 6 10 8 10 10 9 11 11 12 13 12
6 2 4 5 11 15 11 4 3 1 3 3 3 5 8 8 10 10 11 9 9 10 5 4 7 3 8 1 3 4 5 6 6 5 6 10 10 5 3 5 6 6 7 5 8 8 9 9 9 9 11 11 11 12
5 9 5 7 9 7 4 4 3 3 4 5 6 7 7 7 8 9 7 8 8 9 4 6 5 5 5 7 5 5 7 8 8 10 10 11 12 11 8 4 5 5 2 4 7 9 7 7 8 8 9 9 8 10
8 7 8 5 7 5 2 2 2 3 3 5 5 6 7 8 8 9 8 8 6 9 5 4 4 5 6 5 9 7 6 7 7 8 8 12 11 10 14 11 8 8 7 7 7 5 6 4 7 6 5 6 6 6
6 5 5 6 6 3 3 3 1 4 3 5 6 6 8 6 7 7 8 7 5 4 6 5 4 9 7 10 10 11 9 11 10 11 9 10 9 8 8 10 9 6 5 9 9 4 6 6 6 4 6 6 6 7
7 5 7 7 4 3 3 2 3 1 4 4 5 6 5 6 7 6 8 11 10 6 6 6 9 10 14 14 11 10 11 11 8 8 10 11 12 10 3 10 11 6 8 5 6 7 8 6 7 7 7 6 7 8
4 1 3 2 3 4 3 2 4 4 3 4 4 4 5 5 7 7 3 7 4 5 4 5 7 7 9 12 12 12 12 13 12 9 9 10 9 9 8 4 7 8 7 7 7 9 8 5 7 8 7 8 7 8
4 3 3 4 3 2 4 2 5 2 3 5 4 2 3 3 4 2 4 4 4 3 6 8 10 11 10 11 12 14 13 13 10 11 12 12 12 9 7 7 6 7 10 6 9 9 5 8 7 8 10 9 9 9
2 3 4 5 5 3 2 3 2 2 3 1 2 1 2 2 4 2 3 3 5 8 9 11 9 9 9 14 11 11 12 10 9 9 10 11 10 9 8 7 6 12 11 6 4 8 10 11 11 10 11 10 10 10
3 3 4 3 4 4 6 5 5 1 3 1 1 2 1 2 1 3 3 4 7 9 9 10 9 9 8 9 10 11 14 9 8 9 9 9 9 10 10 9 11 11 9 10 7 14 8 11 14 13 13 13 14 15
4 6 7 7 5 5 5 5 5 6 1 1 2 0 1 1 3 4 3 5 5 7 9 9 9 9 9 10 9 9 11 10 8 7 7 8 6 7 9 9 10 10 12 12 13 11 8 13 14 17 16 16 12 15
5 7 5 4 1 4 3 4 3 3 4 4 3 1 2 2 3 2 1 5 4 6 7 6 6 7 8 9 9 9 10 11 11 8 7 7 8 6 9 9 11 11 15 16 14 11 9 12 12 9 12 15 17 16
6 5 8 6 4 3 3 3 5 6 5 4 3 4 4 3 2 3 3 4 5 5 6 6 7 7 7 7 7 8 11 14 14 12 3 4 7 6 11 9 10 19 15 12 13 14 9 8 12 15 16 16 14 14
5 5 5 7 5 4 5 6 4 4 2 2 4 4 3 3 2 0 1 3 2 4 5 7 7 7 8 8 9 9 10 12 19 25 25 16 16 13 13 12 12 11 11 12 15 13 12 8 9 12 14 14 15 14
6 8 6 8 6 7 6 5 1 4 1 3 5 7 5 3 2 1 2 4 4 5 6 6 6 8 9 9 10 12 10 10 11 11 12 14 12 13 12 13 13 12 11 11 12 14 4 4 3 4 7 8 7 5
7 8 6 6 6 6 9 8 5 4 2 3 3 3 7 5 4 5 5 5 5 6 7 8 8 8 9 10 11 11 11 11 15 16 14 11 11 13 13 13 12 11 10 12 10 10 10 4 4 9 13 13 12 11
7 8 7 5 4 4 5 5 6 4 4 3 3 4 4 5 4 3 4 5 6 5 5 5 7 8 8 9 9 8 7 10 12 13 18 13 13 15 13 11 11 11 13 13 12 13 13 13 9 3 6 10 12 13
4 6 4 2 1 4 6 5 4 4 2 2 3 3 2 3 4 4 3 4 4 5 5 5 4 6 7 8 11 10 8 10 10 6 10 10 11 12 12 12 11 14 15 14 15 15 18 20 16 17 17 16 14 13
Wind_Direction
293 295 300 313 322 325 325 327 327 330 328 327 325 325 321 319 318 313 298 273 243 268 282 279 274 279 273 247 255 326 302 308 285 285 322 341 320 330 284 307 313 293 305 303 238 241 252 359 314 243 289 327 320 307
289 292 299 312 317 322 322 319 325 326 326 322 319 318 316 313 311 312 272 278 324 258 274 302 286 273 258 256 255 221 291 323 304 316 25 310 310 300 322 295 129 271 232 282 246 269 289 292 279 269 269 271 272 282
284 292 302 308 315 319 315 317 323 323 323 319 317 310 307 305 299 287 285 288 279 279 276 249 263 223 220 228 234 233 246 220 225 95 304 288 278 314 283 270 290 250 201 223 278 276 269 290 294 338 344 253 229 260
280 277 294 308 314 313 312 317 320 320 317 316 311 305 302 299 302 293 282 286 263 279 279 351 240 247 233 210 208 207 250 272 37 165 262 245 262 285 286 290 319 293 324 310 305 324 317 11 7 344 353 17 311 282
250 272 292 304 310 309 312 314 317 315 314 313 308 310 310 307 302 285 259 251 242 249 311 311 301 266 242 207 215 214 227 250 281 283 242 244 251 263 276 296 252 9 19 17 329 345 332 354 343 341 350 4 3 346
246 267 287 300 307 310 310 313 313 317 314 311 309 309 306 304 297 275 267 127 190 166 272 286 336 289 193 197 207 217 224 208 175 240 246 244 241 265 320 289 341 36 36 48 347 337 358 2 344 336 338 7 15 3
240 260 281 299 305 308 313 314 318 317 316 312 309 308 305 294 248 223 12 11 151 137 246 275 264 234 224 213 172 177 180 198 190 228 229 256 281 216 254 270 26 24 44 17 39 9 1 356 342 2 27 22 35 24
232 256 281 298 305 312 316 317 318 319 316 312 309 309 304 280 233 264 261 174 144 211 242 267 271 262 177 193 206 179 184 201 196 252 252 262 230 207 268 285 42 48 31 34 27 44 358 342 13 35 20 20 39 33
232 256 284 297 306 314 317 316 320 323 318 312 309 305 240 245 210 141 62 191 178 239 260 237 269 292 234 298 154 181 189 214 188 227 244 254 253 229 259 29 42 49 24 30 31 45 12 7 13 45 28 29 29 27
230 257 286 299 308 314 314 316 324 323 312 306 290 203 182 70 293 249 169 197 156 195 237 259 266 271 303 303 282 186 185 224 220 210 165 271 262 247 210 69 62 64 40 48 23 41 21 9 9 42 48 46 36 30
226 259 287 301 311 317 316 318 331 326 291 325 331 330 349 335 265 208 231 196 163 228 213 236 246 258 293 281 302 283 258 235 247 157 237 215 211 189 125 106 87 78 53 70 58 59 46 352 18 34 51 62 43 26
224 260 284 297 306 326 338 340 340 320 349 321 304 305 295 296 242 275 263 243 218 255 158 314 46 326 324 315 277 283 275 281 285 126 239 324 64 128 135 106 94 99 71 67 65 64 59 22 27 47 42 53 70 34
227 262 282 290 301 305 312 333 332 319 299 224 204 242 275 215 285 252 254 240 337 10 359 338 330 279 185 309 275 306 267 262 323 266 231 81 91 132 124 121 111 101 94 81 73 68 69 51 35 43 56 34 66 76
237 266 281 292 298 294 311 322 323 320 272 274 296 277 258 201 237 324 349 337 342 299 317 300 289 289 65 301 304 248 259 274 250 220 90 77 68 218 124 124 122 110 102 92 89 71 69 61 50 48 58 49 51 63
249 270 279 275 274 316 317 312 303 262 272 274 284 254 248 344 315 328 281 294 325 318 314 300 281 226 187 235 218 263 221 222 181 99 19 58 358 256 138 135 173 120 127 118 96 85 81 77 55 64 64 60 62 56
264 271 205 34 321 313 313 292 243 260 241 257 240 277 314 325 315 311 332 329 14 314 316 297 266 262 218 208 198 228 199 96 57 42 4 22 24 314 141 126 164 143 113 107 105 106 93 89 87 73 60 67 61 60
256 207 115 334 316 299 275 271 228 198 307 272 271 279 298 314 315 314 319 304 314 308 328 294 291 348 303 261 281 13 39 9 347 359 24 14 5 338 196 175 144 191 129 137 120 106 101 107 105 91 83 77 82 83
248 115 76 346 323 274 169 227 242 242 246 248 291 336 331 341 313 309 319 311 301 292 323 303 314 321 307 329 36 9 354 0 8 11 357 360 3 353 311 140 157 125 196 180 139 122 126 114 110 100 108 112 107 100
24 353 1 330 321 303 258 201 301 292 296 323 304 336 342 320 315 308 315 304 301 291 288 273 258 288 329 14 360 9 349 1 338 359 358 320 31 14 336 312 182 206 178 180 151 174 142 148 102 112 129 113 100 92
270 264 265 282 267 235 225 180 216 262 275 342 294 334 330 333 313 314 316 305 278 259 231 240 305 15 354 331 339 357 352 354 355 342 348 349 358 22 335 320 255 199 208 169 169 173 143 159 147 148 93 97 116 111
192 130 227 241 173 261 282 278 245 242 316 304 333 314 321 353 33 10 352 8 24 19 2 2 341 336 336 321 334 351 359 1 351 335 333 322 336 329 24 318 345 293 196 196 170 177 174 178 146 130 158 112 113 105
91 264 259 152 228 185 263 191 308 338 265 288 308 314 28 4 15 33 43 46 48 19 352 322 324 320 326 344 347 349 358 358 332 311 279 301 306 328 330 347 320 331 314 243 182 188 210 148 159 148 152 122 125 124
171 207 213 200 205 142 251 219 254 89 295 343 324 2 43 31 29 49 65 31 41 353 342 331 335 338 347 358 4 2 6 355 338 326 321 313 306 306 316 326 313 275 252 223 275 178 175 137 154 168 135 156 143 138
168 219 218 196 190 207 223 190 171 216 238 241 325 92 54 3 2 29 82 61 11 359 353 348 351 352 358 9 4 354 356 350 335 323 311 308 301 305 317 308 282 280 284 272 119 287 180 178 166 186 160 165 156 158
200 212 174 214 215 203 203 183 180 156 241 105 231 87 329 49 26 77 47 32 359 355 354 355 359 356 351 353 351 349 354 344 334 322 317 313 313 322 327 333 312 294 305 310 218 185 192 180 177 185 175 176 171 176
223 190 192 195 176 204 181 181 156 211 164 229 117 68 9 352 51 45 39 9 359 351 348 352 353 347 356 360 347 346 350 339 328 324 327 332 334 3 347 339 330 326 357 338 330 301 187 184 181 191 186 180 170 179
214 209 189 254 198 148 190 199 205 158 199 199 151 159 76 116 131 99 65 39 355 337 322 332 354 345 341 347 353 356 357 351 358 344 324 0 360 26 13 344 330 321 322 314 308 312 271 200 186 201 202 182 179 187
241 233 173 179 150 151 219 215 201 210 193 157 167 151 157 184 79 47 36 0 329 324 345 350 357 351 1 5 6 7 8 2 1 7 353 24 24 11 356 340 326 314 310 315 321 318 310 271 201 200 207 197 181 191
216 208 122 170 138 185 217 216 228 172 153 223 181 128 117 77 110 109 344 301 334 8 0 352 8 358 11 8 15 21 24 13 5 7 6 1 353 356 347 336 331 329 322 316 312 304 287 286 256 204 199 190 187 197
191 168 178 167 181 206 198 199 76 53 142 5 89 116 94 117 111 50 12 19 24 24 355 344 359 14 11 9 12 16 20 31 25 13 353 346 339 331 330 335 336 335 326 322 326 313 293 236 128 94 110 124 130 129
168 185 172 185 202 214 148 153 105 33 12 120 47 115 128 143 123 66 25 357 26 34 15 354 4 24 11 10 9 8 4 12 20 13 4 348 346 344 340 344 343 343 343 348 349 357 351 301 187 151 153 153 157 167
176 190 162 186 198 206 139 195 129 154 138 138 135 132 139 172 132 78 18 356 38 34 25 354 349 3 16 3 6 7 351 2 15 13 8 1 358 354 353 350 359 1 6 17 15 17 23 25 17 46 165 171 163 161
187 177 163 133 251 222 190 163 132 125 117 135 112 133 120 74 84 106 94 54 40 16 356 343 339 352 2 17 3 350 357 4 21 46 6 359 3 3 9 3 10 20 24 27 34 39 38 48 48 51 61 65 71 86